AirNav   Pilot Hours Calculator
 
 523 users online  

53T Cannon Field Airport
Somerset, Texas, USA

GOING TO SOMERSET?


FAA INFORMATION EFFECTIVE 09 SEPTEMBER 2021

Location

FAA Identifier: 53T
Lat/Long: 29-12-57.8640N 098-32-58.0630W
29-12.964400N 098-32.967717W
29.2160733,-98.5494619
(estimated)
Elevation: 610 ft. / 186 m (estimated)
Variation: 07E (1985)
From city: 6 miles E of SOMERSET, TX
Time zone: UTC -5 (UTC -6 during Standard Time)
Zip code: 78264

Airport Operations

Airport use: Open to the public
Activation date: 09/1983
Control tower: no
ARTCC: HOUSTON CENTER
FSS: SAN ANGELO FLIGHT SERVICE STATION
NOTAMs facility: SJT (NOTAM-D service available)
Attendance: CONTINUOUS
FOR ARPT ATTENDANT CALL 210-842-0429.
Wind indicator: yes
Segmented circle: no

Airport Communications

CTAF/UNICOM: 123.0
WX ASOS at SSF (8 nm NE): PHONE 210-927-9391
WX AWOS-3 at PEZ (16 nm S): 118.575 (830-569-5749)
WX AWOS-3 at CVB (18 nm NW): 119.25 (830-931-0232)
WX ASOS at SAT (20 nm N): PHONE 210-805-5583

Nearby radio navigation aids

VOR radial/distance  VOR name  Freq  Var
SSFr236/(6.1)STINSON VOR108.4009E
RNDr212/22.8RANDOLPH VORTAC112.3005E
SATr182/26.1SAN ANTONIO VORTAC116.8008E

 
NDB name  Hdg/Dist  Freq  Var  ID
DEVINE070/20.935907EHHH .... .... ....

Airport Services

Airframe service: NONE
Powerplant service: NONE

Runway Information

Runway 16/34

Dimensions: 2880 x 100 ft. / 878 x 30 m
ROLLING GRADIENT ENTIRE LEN OF RWY NOT VISIBLE FM ENDS.
Surface: turf, in good condition
Runway edge markings: RWY OUTLINED WITH ROUND WHITE CONCRETE MARKERS.
RUNWAY 16  RUNWAY 34
Traffic pattern: leftright
Displaced threshold: 200 ft.300 ft.
Markings: NSTD
Obstructions: 4 ft. fence, 105 ft. right of centerline
RWY 16 0:1 AT DSPLCD THR DUE TO 4 FT FENCE APPROX 105 FT R OF CNTRLN.
49 ft. tree, 100 ft. left of centerline
RWY 34 0:1 AT DSPLCD THR DUE TO +4 FT FENCE 51 FT R OF CNTRLN.

Airport Ownership and Management from official FAA records

Ownership: Privately-owned
Owner: ALAMO LIAISON GROUP
2352 S LOOP 1604 W
SAN ANTONIO, TX 78264-3719
Phone 210-624-2226
Manager: RICHARD ROBERTS
2352 S LOOP 1604 W
SAN ANTONIO, TX 78264-3719
Phone 210-624-2226

Airport Operational Statistics

Aircraft based on the field: 13
Single engine airplanes: 13
    
Aircraft operations: avg 21/week *
91% local general aviation
9% transient general aviation
* for 12-month period ending 01 February 2017

Additional Remarks

WILDLIFE ON & INVOF ARPT.
+30 FT MKD PWRLINE 500 FT N OF RWY 16 END.
RWYS 16 & 34 DSPLCD THRS MKD WITH WHITE PAINTED BARRELS.
RWY 16/34 SOUTH HALF ROUGH EDGES.
RWY 16 +4 FT FENCE 105 FT R PARALLEL TO RWY; +6-10 FT TREES IN FENCE ROW 105 FT R OF CNTRLN.
RWY 34 +4 FT FENCE 51 FT RIGHT PARALLEL TO RWY.
FOR CD CTC SAN ANTONIO APCH AT 210-805-5516.

Instrument Procedures

There are no published instrument procedures at 53T.

Some nearby airports with instrument procedures:

KSSF - Stinson Municipal Airport (8 nm NE)
KSKF - Kelly Field Airport (10 nm N)
KPEZ - Pleasanton Municipal Airport (16 nm S)
KCVB - Castroville Municipal Airport (18 nm NW)
KSAT - San Antonio International Airport (20 nm N)
 
Loc | Ops | Rwys | IFR | FBO | Links
Com | Nav | Svcs | Stats | Notes
Area around 53T (Cannon Field Airport)
 
Road maps at: MapQuest Bing Google
 
Aerial photo
WARNING: Photo may not be current or correct
Aerial photo of 53T (Cannon Field Airport)
Photo taken 11-Jun-2010

Do you have a better or more recent aerial photo of Cannon Field Airport that you would like to share? If so, please send us your photo.

 
Sectional chart

 
Airport distance calculator
Flying to Cannon Field Airport? Find the distance to fly.

From to 53T

Sunrise and sunset
Times for 21-Sep-2021
 Local
(UTC-5)
 Zulu
(UTC)
Morning civil twilight06:5911:59
Sunrise07:2312:23
Sunset19:3100:31
Evening civil twilight19:5500:55

Current date and time
Zulu (UTC)  21-Sep-2021 10:31:17
Local (UTC-5)  21-Sep-2021 05:31:17
 
METAR
KSSF 
8nm NE 
210953Z AUTO 19004KT BKN016 OVC020 28/25 A2992 RMK AO2 SLP115 T02830250
KSKF 
9nm N 
211016Z AUTO 18006KT 9SM SCT013 OVC019 27/24 A2993 RMK AO2 CIG 013V019 CIG 018 RWY16 SLP126
KPEZ 
16nm S 
211015Z AUTO 18005KT 10SM OVC014 27/25 A2993 RMK AO2 T02700250
KCVB 
17nm NW 
211014Z AUTO 14004KT OVC010 27/25 A2996 RMK AO2 PWINO
KSAT 
20nm N 
210958Z 18007KT 10SM OVC017 27/24 A2995 RMK AO2 T02720239
TAF
KSSF 
8nm NE 
210655Z 2107/2206 17005KT P6SM BKN014 FM211500 12005KT P6SM SCT025 FM211800 01010KT P6SM VCTS SCT050CB BKN100 PROB30 2119/2124 5SM TSRA BR BKN035CB
KSKF 
9nm N 
201800Z 2018/2124 15006KT 9999 FEW050 QNH2982INS TEMPO 2109/2110 BKN009 BECMG 2118/2119 05006KT 9999 VCSH SCT050 QNH2999INS TEMPO 2119/2123 VRB06KT 9000 -SHRA VCTS BKN040CB BECMG 2122/2123 02012KT 9999 NSW SCT050 QNH3002INS TX36/2021Z TN23/2112Z
KSAT 
20nm N 
210655Z 2107/2212 16008KT P6SM BKN014 FM211500 18005KT P6SM SCT025 FM211700 01010KT P6SM VCTS SCT050CB BKN150 PROB30 2119/2201 5SM TSRA BR BKN035CB FM220100 01012G22KT P6SM SCT080 SCT250
NOTAMs
Click for the latest NOTAMs
NOTAMs are issued by the DoD/FAA and will open in a separate window not controlled by AirNav.

 

 
 

Would you like to see your business listed on this page?

 If your business provides an interesting product or service to pilots, flight crews, aircraft, or users of the Cannon Field Airport, you should consider listing it here.  To start the listing process, click on the button below
 
Add a business
 

Other Pages about Cannon Field Airport

Update a link
 
Copyright © AirNav, LLC. All rights reserved. Privacy Policy  Contact